Dewpoint
29 26 24 27 31 32 31 32 36 41 42 41 37 41 43 51 55 52 53 58 59 60 63 62 64 67 66 69 69 70 70 71 71 69 68 67 66 67 67 68 69 69 70 70
26 25 27 29 29 29 29 29 34 39 41 40 39 38 48 56 57 54 51 53 57 59 62 62 62 63 67 67 69 70 70 71 70 69 68 68 67 67 68 68 68 69 69 69
25 24 28 27 25 24 21 20 22 23 32 41 39 33 42 48 54 56 55 52 54 60 62 61 61 60 64 60 69 69 70 70 69 68 68 67 67 66 65 65 66 67 68 68
28 29 27 25 24 22 16 18 21 18 24 22 30 21 34 43 51 52 51 51 54 62 63 61 58 58 61 60 66 70 69 69 69 68 66 65 64 63 64 64 66 66 67 68
28 29 29 28 26 21 16 18 18 27 26 24 24 20 24 43 41 49 51 54 55 61 54 63 62 61 62 62 70 70 69 69 68 67 66 65 63 64 65 65 65 66 66 67
28 29 29 26 25 23 21 23 23 28 23 19 22 21 27 40 40 44 46 51 57 63 61 63 62 62 64 68 70 69 69 68 68 66 65 64 63 62 63 64 64 65 66 66
28 27 29 29 24 21 18 17 16 17 21 21 25 31 35 46 47 48 45 48 56 64 64 63 63 64 68 69 69 69 68 66 65 65 65 64 62 63 63 64 65 64 64 65
28 27 27 28 22 18 17 16 18 15 19 22 28 27 37 48 49 49 47 55 64 64 65 65 66 67 69 69 68 67 66 65 65 65 65 64 64 65 66 66 65 65 64 65
26 27 30 28 26 19 19 17 19 17 23 20 25 41 46 48 47 50 60 63 63 62 61 63 63 65 68 67 67 66 65 65 65 65 65 64 64 64 64 65 66 65 65 66
26 23 23 25 27 22 16 18 15 20 19 15 25 40 41 45 41 54 54 61 61 62 60 62 62 63 66 66 66 66 65 64 64 65 65 64 63 64 64 64 66 65 67 66
25 25 23 28 25 21 20 18 19 19 22 18 20 31 45 47 46 51 57 62 62 64 63 62 62 63 64 64 65 65 65 65 65 65 64 64 64 64 64 65 65 65 66 65
26 25 24 23 26 26 23 19 19 20 15 27 28 35 49 49 51 52 55 62 61 63 63 63 63 62 62 63 64 64 65 65 65 66 63 63 64 64 64 64 65 65 64 66
25 25 23 23 23 23 25 22 22 24 24 18 22 27 50 50 49 54 56 60 62 63 62 62 62 62 61 61 63 63 65 65 65 66 64 62 62 64 64 64 65 65 64 65
42 31 22 20 21 28 25 27 26 25 24 20 25 37 48 49 49 54 55 58 58 59 58 58 62 61 61 61 59 59 63 65 66 64 64 64 63 64 64 65 65 65 64 64
32 26 33 31 33 34 34 28 28 25 25 23 24 36 43 50 53 56 55 55 55 56 58 60 61 62 63 62 61 61 62 65 66 64 63 63 63 65 66 65 65 64 64 64
39 24 42 33 36 35 34 34 35 33 30 32 38 42 48 53 57 57 57 54 55 57 59 60 64 64 64 64 64 65 65 65 65 64 63 62 64 65 65 65 64 64 63 63
44 34 36 34 36 36 33 34 35 37 35 36 37 41 52 53 55 55 54 57 58 58 61 64 62 61 60 60 62 62 63 64 65 65 64 64 64 64 64 64 62 60 59 57
44 45 39 34 35 33 34 41 38 38 39 47 43 49 50 51 52 57 58 53 59 62 62 60 59 58 58 58 59 60 62 63 64 64 65 64 64 64 64 62 59 57 55 53
45 43 40 34 34 36 36 39 37 36 38 48 44 49 51 57 59 59 61 62 61 60 59 58 57 57 56 57 58 59 61 62 63 66 64 65 64 63 61 58 55 53 50 48
42 43 39 40 37 34 37 40 41 40 37 49 46 50 58 58 53 58 59 58 58 58 57 56 55 55 54 54 56 57 57 57 58 60 61 63 63 61 58 56 53 50 48 47
31 40 37 39 37 38 51 55 47 34 37 54 48 50 52 55 56 58 57 57 57 56 56 55 54 53 54 54 54 53 54 53 55 55 56 56 56 55 53 51 50 49 48 48
32 33 38 38 36 34 54 55 49 53 59 55 53 56 58 58 57 56 55 55 55 54 54 53 52 52 52 53 52 51 51 52 53 53 53 52 52 52 51 50 49 48 47 47
43 46 42 39 40 53 55 55 58 60 59 60 59 60 58 57 55 54 53 53 53 53 52 52 51 51 51 52 51 50 51 52 51 51 51 51 51 50 50 49 48 48 48 47
47 50 47 45 50 52 57 57 57 56 57 59 60 59 58 55 55 53 52 52 52 52 52 51 51 50 50 51 51 51 52 52 51 51 50 50 49 49 49 49 48 46 46 46
45 48 47 47 51 53 56 58 59 58 58 57 58 59 57 56 55 53 52 52 52 52 52 51 50 50 50 51 51 51 50 48 47 46 46 45 42 42 42 41 42 42 42 44
46 46 46 46 52 50 54 55 59 58 58 59 57 57 57 55 54 53 52 52 52 52 51 50 51 51 51 51 49 48 46 46 46 43 39 38 37 35 35 35 34 40 40 39
Lifted_Index
5 4 3 4 4 4 3 3 3 2 2 2 1 1 -0 -1 -2 -3 -2 -2 -2 -2 -3 -3 -2 -2 -4 -5 -6 -5 -5 -6 -6 -6 -6 -5 -4 -3 -3 -2 -2 -3 -3 -3
4 3 4 4 4 4 3 3 3 2 2 2 1 1 0 -1 -2 -2 -2 -2 -1 -2 -2 -2 -1 -1 -3 -5 -5 -5 -5 -6 -6 -6 -6 -5 -4 -3 -2 -2 -2 -2 -2 -2
3 3 4 4 4 4 3 3 3 2 2 2 1 1 0 -1 -2 -2 -2 -1 -1 -2 -2 -2 -1 -0 -3 -4 -5 -5 -5 -5 -6 -6 -5 -4 -3 -2 -2 -1 -1 -1 -1 -1
3 3 4 4 4 4 3 3 3 2 2 2 1 1 1 0 -1 -1 -1 -1 -2 -2 -2 -2 -1 -1 -2 -4 -5 -5 -5 -5 -5 -5 -4 -3 -2 -1 -1 -0 -0 -0 -0 -0
3 3 4 4 4 4 3 3 3 2 2 2 1 1 0 0 -0 -0 -1 -1 -2 -3 -2 -2 -2 -2 -3 -4 -5 -5 -5 -5 -4 -4 -3 -2 -1 -0 0 -0 -0 -1 -1 -0
3 4 4 4 4 4 3 3 2 2 2 1 1 0 0 -0 -0 -0 -1 -1 -3 -4 -3 -3 -3 -4 -4 -5 -5 -5 -4 -4 -3 -2 -2 -1 -0 0 0 -0 -0 -1 -1 -1
3 3 3 4 3 3 3 2 1 1 1 0 0 1 1 0 -0 -1 -1 -2 -4 -5 -5 -5 -5 -5 -5 -6 -5 -5 -4 -3 -2 -1 -1 -0 0 0 0 -0 -1 -1 -1 -1
2 2 3 3 3 2 2 2 1 1 0 1 1 1 1 0 -0 -1 -2 -4 -6 -7 -6 -6 -6 -6 -6 -6 -5 -4 -3 -2 -2 -1 -1 -0 0 0 0 -0 -1 -1 -1 -1
2 2 2 2 2 2 1 1 1 1 1 1 1 1 0 -0 -1 -2 -3 -5 -6 -7 -6 -7 -7 -6 -6 -5 -4 -3 -2 -2 -2 -2 -1 0 0 0 0 -0 -0 -1 -1 -1
2 2 2 2 2 2 1 1 1 1 1 1 0 0 -1 -1 -1 -2 -3 -4 -5 -5 -6 -6 -6 -6 -5 -4 -4 -3 -2 -2 -2 -2 -1 0 1 0 0 0 -0 -0 -1 -1
2 2 1 1 2 2 1 1 0 0 0 0 0 -0 -1 -1 -2 -2 -3 -4 -4 -4 -4 -5 -5 -5 -4 -4 -3 -3 -3 -2 -2 -2 -1 0 1 0 0 0 0 -0 -0 -0
2 1 1 1 1 1 1 1 0 0 0 1 0 -0 -1 -1 -1 -2 -3 -4 -4 -3 -4 -4 -5 -5 -4 -4 -3 -3 -3 -3 -2 -2 -1 -0 0 0 0 0 0 0 -0 -0
1 1 1 1 1 1 1 0 0 0 0 1 0 -0 -1 -1 -1 -1 -2 -3 -3 -3 -3 -4 -5 -5 -4 -4 -3 -3 -3 -3 -3 -2 -1 -1 -0 -0 -0 -0 -0 0 0 -0
1 1 1 1 1 0 0 0 0 0 0 0 0 -0 -1 -1 -1 -1 -1 -2 -2 -2 -3 -4 -5 -5 -5 -4 -3 -3 -3 -3 -3 -2 -2 -1 -1 -1 -1 -1 -0 0 0 1
1 1 0 1 1 0 -0 -0 0 0 0 0 0 -0 -1 -1 -1 -2 -2 -2 -1 -1 -2 -3 -4 -5 -5 -4 -3 -3 -3 -3 -3 -2 -2 -1 -1 -1 -1 -1 -0 0 1 1
0 0 0 1 1 0 -0 -0 -0 -0 -0 -0 -0 -1 -1 -2 -2 -2 -2 -1 -1 -1 -2 -3 -4 -5 -5 -4 -3 -3 -3 -3 -3 -2 -1 -1 -0 0 0 0 0 1 1 2
-1 -1 0 1 1 0 0 -0 -1 -0 -0 -0 -0 -1 -1 -2 -3 -3 -2 -2 -2 -3 -3 -4 -4 -5 -4 -4 -4 -4 -4 -3 -3 -2 -1 -1 0 1 1 1 1 1 2 2
-1 -1 -1 0 1 1 0 -0 -1 -1 -1 -1 -1 -1 -2 -2 -3 -3 -3 -3 -4 -4 -4 -4 -4 -4 -4 -3 -3 -3 -3 -2 -2 -2 -1 -0 1 1 1 2 2 2 2 2
-1 -1 -1 -0 0 1 1 -0 -1 -1 -1 -1 -1 -1 -2 -3 -3 -3 -4 -5 -5 -5 -4 -4 -4 -4 -3 -3 -2 -1 -1 -1 -1 -1 -1 0 1 2 2 2 2 3 3 3
0 0 -0 -0 0 1 0 -1 -1 -1 -1 -1 -1 -1 -3 -3 -3 -4 -5 -6 -5 -5 -4 -4 -4 -3 -2 -1 0 1 1 1 0 -0 -0 0 1 2 2 2 3 3 3 4
1 1 1 0 0 0 -1 -2 -2 -2 -2 -2 -2 -2 -3 -3 -3 -4 -5 -5 -5 -4 -4 -4 -3 -2 -0 1 2 3 2 2 1 0 0 1 1 1 2 2 3 3 4 4
1 1 1 1 0 0 -1 -2 -3 -3 -3 -3 -3 -3 -3 -4 -4 -4 -4 -4 -4 -3 -3 -2 -1 0 2 3 3 3 2 2 1 1 0 1 1 1 2 2 3 4 4 4
0 0 0 0 0 0 -1 -2 -3 -3 -4 -4 -3 -3 -3 -3 -4 -4 -3 -3 -2 -2 -1 -0 1 2 3 3 3 3 3 2 1 1 0 1 1 1 2 3 3 4 4 5
-1 -0 -0 -0 0 0 0 -0 -1 -2 -2 -2 -2 -2 -2 -3 -3 -3 -2 -1 -1 0 1 2 3 3 3 3 3 3 3 2 2 1 1 1 2 2 3 3 4 5 5 5
-0 -0 -1 -0 0 1 1 0 0 -0 -1 -1 -1 -0 -1 -2 -2 -2 -1 0 1 2 2 3 4 4 4 4 4 3 3 3 2 2 2 3 3 3 4 5 6 7 8 8
-0 -0 -0 -0 0 0 1 0 0 0 -0 -0 -0 0 -0 -1 -1 -1 -0 1 2 3 3 4 4 4 4 4 4 3 3 3 2 2 3 3 4 4 5 5 7 9 11 11